Regional Weather Roundup
Issued by NWS

Home | Current Version | Previous Version | Text Only | Print | Product List | Glossary On
Versions: 1 2 3 4 5 6 7 8 9 10 11 12 13 14 15 16 17 18 19 20 21 22 23 24 25 26 27 28 29 30 31 32 33 34 35 36 37 38 39 40 41 42 43 44 45 46 47 48 49 50
000
ASUS43 KLMK 290310
RWRKY
KENTUCKY REGIONAL WEATHER ROUNDUP
NATIONAL WEATHER SERVICE LOUISVILLE KY
1100 PM EDT TUE JUL 28 2015

NOTE "FAIR" INDICATES FEW OR NO CLOUDS BELOW 12,000 FEET
WITH NO SIGNIFICANT WEATHER AND/OR OBSTRUCTIONS TO VISIBILITY.

KYZ001>023-026-027-061>063-070>075-290400-
WESTERN AND SOUTH CENTRAL KENTUCKY

CITY           SKY/WX    TMP DP  RH WIND       PRES   REMARKS
PADUCAH        CLOUDY    77  72  84 SE6       29.98R
HENDERSON      CLOUDY    75  72  88 CALM      29.98S
OWENSBORO      CLOUDY    76  75  96 W5        30.00R
HOPKINSVILLE   CLOUDY    75  73  94 SW6       30.02R
BOWLING GREEN  PTCLDY    77  73  87 W7        30.03R
GLASGOW        CLOUDY   N/A N/A N/A CALM      30.02R
$$

KYZ024-025-028>034-038-045-046-053-290400-
NORTH CENTRAL KENTUCKY

CITY           SKY/WX    TMP DP  RH WIND       PRES   REMARKS
LOUISVILLE/SDF PTCLDY    82  72  71 W7        29.98R
LOUISVILLE/LOU CLEAR     81  74  79 CALM      29.99R
FORT KNOX      PTCLDY    77  72  84 W6        29.99R
$$

KYZ035>037-039>044-047>052-055>060-089>105-290400-
NORTHEAST KENTUCKY

CITY           SKY/WX    TMP DP  RH WIND       PRES   REMARKS
LEXINGTON      CLEAR     75  72  90 W5        30.01R
COVINGTON      MOCLDY    81  73  76 CALM      30.01R
FRANKFORT      CLEAR     76  73  91 SE3       30.00R
$$

KYZ054-064>069-076>088-106>120-290400-
SOUTHEAST KENTUCKY

CITY           SKY/WX    TMP DP  RH WIND       PRES   REMARKS
JACKSON        PTCLDY    76  73  91 CALM      30.02R FOG
LONDON         CLOUDY    75  68  78 CALM      30.02R
SOMERSET       PTCLDY    72  72 100 CALM      30.02R
MIDDLESBORO    CLOUDY    75  73  94 CALM      30.04R
MONTICELLO     CLOUDY    75  73  94 CALM      30.04R FOG
$$



USA.gov is the U.S. government's official web portal to all federal, state and local government web resources and services.